Simultaneous Nadir Overpasses (SNOs) Predictions

Prediction of SNOs between METOP-A and NPP Satellite Orbit:

Table of predicted SNOs for the next 14.0 days since TLE Epoch: 5/1/2013
Index Date (METOP-A) Time (METOP-A) Lat,Lon (METOP-A) SZA (METOP-A ) Date (NPP) Time (NPP) Lat,Lon (NPP) SZA (NPP ) Distance(km) Time Diff (sec)
1 05/15/2013 07:25:01 73.48, 61.90 54.57 05/15/2013 07:23:54 73.47, 58.99 54.69 92.10 67
2 05/15/2013 08:15:44 -73.41,-130.94 125.51 05/15/2013 08:14:36 -73.38,-133.48 125.42 81.04 68
3 05/15/2013 09:06:29 73.16, 35.84 54.25 05/15/2013 09:05:18 73.17, 34.28 54.35 50.28 71
4 05/15/2013 09:57:12 -73.09,-156.99 125.82 05/15/2013 09:56:00 -73.08,-158.20 125.76 39.31 72
5 05/15/2013 10:47:56 72.88, 9.91 53.99 05/15/2013 10:46:42 72.87, 9.55 54.01 11.91 74
